Powrót do katalogu

MTG-S1

AktywnyPogodaGEO
NORAD 64723·PAYLOAD·🇺🇸 United States

Wystrzelony Jul 1, 2025 z Cape Canaveral Space Force Station

Loading…

TLE

ŚwieżeSource: Space-Track

Epoka: Sep 14, 2026, 22:21 UTC

1 64723U 25143A   26257.93144745 -.00000014  00000-0  00000-0 0  9992
2 64723   0.6228 340.5741 0003529 254.6684  93.7173  1.00271533  4310

Śledź MTG-S1 w czasie rzeczywistym z AllMySat

Download on the App Store